Powrót do katalogu

TAIJING-3 02

AktywnyNaukaSSO
NORAD 58822·PAYLOAD·🇨🇳 China

Wystrzelony Jan 23, 2024 z Jiuquan Satellite Launch Center

Loading…

Następne Przeloty (najbliższe 24 godziny)

TLE

ŚwieżeSource: Space-Track

Epoka: Sep 14, 2026, 15:29 UTC

1 58822U 24016C   26257.64558422  .00006310  00000-0  24523-3 0  9995
2 58822  97.4315 337.7285 0008627 237.4019 122.6387 15.26378767146776

Śledź TAIJING-3 02 w czasie rzeczywistym z AllMySat

Download on the App Store